星链-5158 (STARLINK-5158 )

导读

STARLINK-5158是美国SpaceX公司星链互联网星座中的一颗低轨卫星,于2022年10月20日发射入轨。星链项目旨在依托近地轨道密集卫星群,为全球提供高速低延迟的互联网接入,尤其为地面网络覆盖盲区提供连接服务。作为大规模星座部署中的一员,该卫星服务于全球联网需求,同时其大规模部署也引发了太空交通与天文观测等领域的关注。

基本信息
目录编号:
54055
目录名称:
STARLINK-5158
国际标识:
2022-136E
轨道中心:
EARTH
卫星名称:
星链-5158
卫星全名:
星链-5158 (STARLINK-5158 )
卫星状态:
在轨 (已飞行1415 天)
发射日期:
2022-10-20 UTC
国别 :
美国 (US)
星等 :
--
轨道信息
数据来源 国际轨道数据 AOE轨道数据
星历时间 2026-09-04T10:33:13+0800
7小时前
查看轨道信息
2026-09-02T06:00:00+0800
2天前
查看轨道信息
半长轴 6843.365km 6843.36km
偏心率 0.0001208 0.0001025
轨道倾角 53.159° 53.159°
近地点辐角 83.603° 87.510°
升交点赤经 254.569° 264.792°
平近点角 276.511° 56.832°
近地点 464.401km 464.521km
远地点 466.055km 465.925km
周期 93.900分钟 93.900分钟
每日圈数 15.335512 15.335529
详细信息
固有亮度:
5
最大亮度:
2.5
卫星平台:
Starlink v1.5
覆盖范围:
全球
运营商:
太空探索技术公司
运营商所在国:
美国
制造商(研发单位):
太空探索技术公司
制造商所在国:
美国
使用方式:
暂无
卫星简介
星链(Starlink)计划是由太空探索技术公司(SpaceX)提出的一个巨型低轨卫星互联网星座项目,计划在2019年至2024年间在太空搭建由约1.2万颗卫星组成的“星链”网络,其中1584颗将部署在地球上空550千米处的近地轨道,并从2020年开始工作。该卫星仍在工作。
2D轨道图
3D轨道图
轨道高度分析图
轨道倾角分析图
轨道综合分析图
查看轨道综合分析图
交会数据列表
事件ID 空间交会对象 最接近时刻(TCA) 交会距离 交会风险概率(CRP) 交会风险指数(CRI) 操作
CDM_260904-164905-405506-484421
2026-09-04T
16:49:47+0000
2.407 km
极远距离
1.855857E-6 低风险 0.4
CDM_260905-104105-405505-883521
2026-09-05T
10:41:16+0000
2.372 km
极远距离
1.712366E-6 低风险 0.4
CDM_260903-095805-405506-152922
2026-09-03T
09:58:49+0000
2.641 km
极远距离
1.36721E-6 低风险 0.38
CDM_260906-125605-405506-167721
2026-09-06T
12:56:18+0000
2.471 km
极远距离
1.261184E-6 低风险 0.37
CDM_260904-080705-405506-638522
2026-09-04T
08:07:49+0000
2.906 km
极远距离
1.224488E-6 低风险 0.37
CDM_260904-170705-405506-002321
2026-09-04T
17:07:20+0000
2.431 km
极远距离
1.202865E-6 低风险 0.37
CDM_260904-092405-405506-094423
2026-09-04T
09:24:38+0000
2.973 km
极远距离
1.13128E-6 低风险 0.36
CDM_260902-124105-405506-950821
2026-09-02T
12:41:39+0000
2.567 km
极远距离
9.33426E-7 极低风险 0.34
CDM_260901-052205-405506-508122
2026-09-01T
05:22:01+0000
2.527 km
极远距离
5.933596E-7 极低风险 0.3
CDM_260905-131905-405506-833221
2026-09-05T
13:19:58+0000
2.974 km
极远距离
4.468506E-7 极低风险 0.28